Flag for U.S.A. Weather past 2 weeks in Alpena, Michigan, U.S.A.

Now
85 °F

Sunny.


Feels Like: 85 °F
Forecast: 63 / 79 °F
Wind: 14 mph from South

Location: Alpena County Regional Airport

Current Time: Jul 6, 2015 at 5:00:05 PM

Latest Report: Jul 6, 2015 at 3:54 PM


Visibility: 9 mi

Pressure: 29.89 "Hg

Humidity: 46%

Dew point: 62 °F

Location of AlpenaLocation

Historic Weather in Alpena — Graph

°F

Alpena temperature yesterday

Maximum temperature yesterday: 79 °F (at 11:54 AM)
Minimum temperature yesterday: 50 °F (at 4:54 AM)
Average temperature yesterday: 66 °F

Past Weeks' High & Low Weather Summary

 TemperatureHumidityPressure
High85 °F (Jul 6, 3:54 PM)100% (Jun 26, 3:54 AM)30.16 "Hg (Jun 26, 3:54 AM)
Low45 °F (Jul 2, 5:54 AM)27% (Jul 2, 6:54 PM)29.56 "Hg (Jun 23, 12:54 AM)
Average64 °F71%29.96 "Hg
* Reported Jun 21 3:54 PM — Jul 6 3:54 PM, Alpena, Weather by CustomWeather, © 2015

Note: Actual official high and low records may vary slightly from our data, if they occured in-between our weather recording intervals... More about our weather records

Advertising

Alpena weather history for previous 24 hours

 ConditionsComfort  
Time TempWeatherWind HumidityBarometerVisibility
3:54 PM
Mon, Jul 6
85 °FSunny.14 mph46%29.89 "Hg9 mi
2:54 PM83 °FSunny.13 mph48%29.92 "Hg9 mi
1:54 PM84 °FSunny.15 mph46%29.94 "Hg10 mi
12:54 PM84 °FSunny.17 mph46%29.94 "Hg10 mi
11:54 AM81 °FSunny.7 mph54%29.97 "Hg10 mi
10:54 AM79 °FSunny.12 mph56%29.98 "Hg10 mi
9:54 AM76 °FSunny.9 mph60%30.00 "Hg10 mi
8:54 AM71 °FSunny.6 mph71%30.03 "Hg9 mi
7:54 AM66 °FSunny.3 mph84%30.03 "Hg7 mi
6:54 AM62 °FFog.No wind90%30.01 "Hg5 mi
5:54 AM65 °FClear.6 mph85%30.01 "Hg9 mi
4:54 AM61 °FClear.5 mph90%30.02 "Hg8 mi
3:54 AM64 °FClear.3 mph87%30.02 "Hg8 mi
2:54 AM66 °FClear.5 mph81%30.01 "Hg10 mi
1:54 AM66 °FClear.7 mph81%30.01 "Hg10 mi
12:54 AM65 °FClear.7 mph78%30.01 "Hg10 mi
11:54 PM
Sun, Jul 5
61 °FClear.No wind83%30.03 "Hg10 mi
10:54 PM64 °FClear.No wind78%30.04 "Hg10 mi
9:54 PM66 °FLight rain. Sunny.7 mph81%30.03 "Hg6 mi
8:54 PM69 °FSunny.No wind73%30.04 "Hg10 mi
7:54 PM72 °FSunny.6 mph66%30.05 "Hg10 mi
6:54 PM75 °FSunny.7 mph58%30.05 "Hg10 mi
5:54 PM78 °FSunny.9 mph52%30.06 "Hg10 mi
Weather by CustomWeather, © 2015

See weather overviewHow to use our weather pages